DLH16A ENBR-EDDK

Flight info

Callsign DLH16A
Flight time 1h 40m
Altitude 37000
Route TINIG DCT DOSUR DCT LARBU Z189 RUNER T858 KOPAG KOPAG1B
Aircraft A321/M-SDE3FGHIRWY/LB1

Departure

Time 2026-05-06 16:50
Airport Bergen Airport, Flesland (ENBR)

Arrival

Time 2026-05-06 18:30
Airport Cologne Bonn Airport (EDDK)
Time Latitude Longitude Altitude Speed Heading
2026-05-06 15:53 60.28811 5.22695 150 ft 0 kts 30°
2026-05-06 16:38 60.28804 5.22687 149 ft 4 kts 28°
2026-05-06 16:38 60.28780 5.22668 149 ft 4 kts
2026-05-06 16:38 60.28759 5.22678 149 ft 4 kts 294°
2026-05-06 16:39 60.28757 5.22699 149 ft 1 kts 259°
2026-05-06 16:39 60.28758 5.22703 149 ft 0 kts 259°
2026-05-06 16:42 60.28758 5.22702 149 ft 0 kts 259°
2026-05-06 16:42 60.28755 5.22687 149 ft 2 kts 251°
2026-05-06 16:43 60.28742 5.22669 149 ft 3 kts 205°
2026-05-06 16:43 60.28718 5.22634 149 ft 5 kts 226°
2026-05-06 16:43 60.28701 5.22560 149 ft 7 kts 252°
2026-05-06 16:43 60.28691 5.22458 149 ft 8 kts 262°
2026-05-06 16:44 60.28708 5.22361 153 ft 8 kts 324°
2026-05-06 16:44 60.28767 5.22331 149 ft 9 kts 351°
2026-05-06 16:44 60.28834 5.22310 150 ft 10 kts 349°
2026-05-06 16:44 60.28905 5.22283 150 ft 11 kts 349°
2026-05-06 16:45 60.28981 5.22258 151 ft 12 kts 352°
2026-05-06 16:45 60.29063 5.22233 152 ft 12 kts 351°
2026-05-06 16:45 60.29148 5.22205 153 ft 13 kts 351°
2026-05-06 16:45 60.29238 5.22174 153 ft 13 kts 350°
2026-05-06 16:46 60.29315 5.22148 154 ft 10 kts 350°
2026-05-06 16:46 60.29384 5.22124 155 ft 10 kts 350°
2026-05-06 16:46 60.29458 5.22098 155 ft 11 kts 350°
2026-05-06 16:46 60.29536 5.22072 156 ft 13 kts 351°
2026-05-06 16:47 60.29651 5.22034 157 ft 19 kts 351°
2026-05-06 16:47 60.29784 5.21988 158 ft 20 kts 350°
2026-05-06 16:47 60.29918 5.21943 159 ft 20 kts 351°
2026-05-06 16:47 60.30056 5.21897 160 ft 20 kts 351°
2026-05-06 16:48 60.30196 5.21851 162 ft 21 kts 350°
2026-05-06 16:48 60.30338 5.21802 163 ft 21 kts 351°
2026-05-06 16:48 60.30431 5.21753 164 ft 9 kts 309°
2026-05-06 16:48 60.30437 5.21620 164 ft 10 kts 263°
2026-05-06 16:49 60.30422 5.21494 162 ft 3 kts 256°
2026-05-06 16:49 60.30403 5.21467 162 ft 4 kts 187°
2026-05-06 16:49 60.30340 5.21483 161 ft 28 kts 171°
2026-05-06 16:49 60.29876 5.21632 160 ft 104 kts 170°
2026-05-06 16:50 60.28940 5.21928 176 ft 162 kts 171°
2026-05-06 16:50 60.27814 5.22326 879 ft 164 kts 172°
2026-05-06 16:50 60.26678 5.22750 1684 ft 171 kts 174°
2026-05-06 16:50 60.25868 5.23017 2010 ft 185 kts 174°
2026-05-06 16:51 60.24516 5.23453 2494 ft 207 kts 174°
2026-05-06 16:51 60.23024 5.23933 2773 ft 229 kts 174°
2026-05-06 16:51 60.21357 5.24475 3107 ft 254 kts 173°
2026-05-06 16:51 60.19586 5.25166 3842 ft 265 kts 163°
2026-05-06 16:52 60.17987 5.27061 4702 ft 272 kts 136°
2026-05-06 16:52 60.16959 5.30242 5515 ft 277 kts 109°
2026-05-06 16:52 60.16394 5.33944 6386 ft 278 kts 107°
2026-05-06 16:52 60.15848 5.37686 7228 ft 280 kts 107°
2026-05-06 16:53 60.15299 5.41445 8024 ft 283 kts 107°
2026-05-06 16:53 60.14738 5.45256 8830 ft 286 kts 107°
2026-05-06 16:53 60.14172 5.49095 9631 ft 289 kts 107°
2026-05-06 16:53 60.13596 5.52994 10310 ft 296 kts 107°
2026-05-06 16:54 60.12983 5.57114 10500 ft 319 kts 107°
2026-05-06 16:54 60.12263 5.61471 10706 ft 338 kts 116°
2026-05-06 16:54 60.10907 5.65350 11197 ft 343 kts 138°
2026-05-06 16:54 60.08924 5.67995 11760 ft 344 kts 160°
2026-05-06 16:55 60.06696 5.69788 12355 ft 348 kts 162°
2026-05-06 16:55 60.04418 5.71562 12945 ft 353 kts 163°
2026-05-06 16:55 60.02115 5.73340 13579 ft 358 kts 164°
2026-05-06 16:55 59.99775 5.75143 14169 ft 362 kts 165°
2026-05-06 16:56 59.97412 5.76970 14763 ft 365 kts 165°
2026-05-06 16:56 59.95031 5.78819 15381 ft 368 kts 165°
2026-05-06 16:56 59.92676 5.80652 15889 ft 371 kts 165°
2026-05-06 16:56 59.90274 5.82522 16155 ft 370 kts 165°
2026-05-06 16:57 59.87880 5.84387 16409 ft 371 kts 165°
2026-05-06 16:57 59.85469 5.86253 16667 ft 372 kts 166°
2026-05-06 16:57 59.83051 5.88116 16931 ft 373 kts 166°
2026-05-06 16:57 59.80623 5.89982 17022 ft 374 kts 166°
2026-05-06 16:58 59.78201 5.91843 17034 ft 374 kts 166°
2026-05-06 16:58 59.75755 5.93719 17476 ft 377 kts 166°
2026-05-06 16:58 59.73307 5.95597 18103 ft 379 kts 166°
2026-05-06 16:58 59.70833 5.97487 18662 ft 382 kts 166°
2026-05-06 16:59 59.68339 5.99389 19175 ft 385 kts 167°
2026-05-06 16:59 59.65834 6.01299 19655 ft 388 kts 167°
2026-05-06 16:59 59.63298 6.03225 20149 ft 392 kts 167°
2026-05-06 16:59 59.60745 6.05163 20594 ft 395 kts 167°
2026-05-06 17:00 59.58178 6.07114 21018 ft 398 kts 167°
2026-05-06 17:00 59.55582 6.09083 21490 ft 401 kts 167°
2026-05-06 17:00 59.52966 6.11063 21955 ft 404 kts 167°
2026-05-06 17:00 59.50332 6.13055 22404 ft 407 kts 167°
2026-05-06 17:01 59.47686 6.15051 22843 ft 410 kts 167°
2026-05-06 17:01 59.45021 6.17062 23226 ft 412 kts 166°
2026-05-06 17:01 59.42373 6.19061 23703 ft 413 kts 166°
2026-05-06 17:01 59.39683 6.21087 24143 ft 414 kts 166°
2026-05-06 17:02 59.36996 6.23105 24563 ft 415 kts 166°
2026-05-06 17:02 59.34290 6.25131 25027 ft 416 kts 167°
2026-05-06 17:02 59.31579 6.27159 25466 ft 417 kts 167°
2026-05-06 17:02 59.28871 6.29179 25932 ft 418 kts 167°
2026-05-06 17:03 59.26150 6.31203 26343 ft 418 kts 167°
2026-05-06 17:03 59.23432 6.33218 26757 ft 419 kts 167°
2026-05-06 17:03 59.20699 6.35240 27153 ft 420 kts 168°
2026-05-06 17:03 59.17960 6.37264 27556 ft 421 kts 168°
2026-05-06 17:04 59.15227 6.39288 27885 ft 422 kts 167°
2026-05-06 17:04 59.12468 6.41325 28166 ft 425 kts 167°
2026-05-06 17:04 59.09693 6.43363 28513 ft 427 kts 167°
2026-05-06 17:04 59.06916 6.45402 28884 ft 428 kts 167°
2026-05-06 17:05 59.04120 6.47455 29233 ft 430 kts 167°
2026-05-06 17:05 59.01323 6.49512 29576 ft 431 kts 167°
2026-05-06 17:05 58.98507 6.51579 29912 ft 433 kts 167°
2026-05-06 17:05 58.95690 6.53637 30213 ft 434 kts 167°
2026-05-06 17:06 58.92851 6.55703 30463 ft 436 kts 167°
2026-05-06 17:06 58.90010 6.57765 30696 ft 438 kts 167°
2026-05-06 17:06 58.87148 6.59843 30911 ft 440 kts 167°
2026-05-06 17:06 58.84312 6.61901 31060 ft 442 kts 167°
2026-05-06 17:07 58.81441 6.63982 31325 ft 441 kts 167°
2026-05-06 17:07 58.78564 6.66064 31622 ft 441 kts 167°
2026-05-06 17:07 58.75651 6.68167 31918 ft 441 kts 167°
2026-05-06 17:07 58.72824 6.70205 32195 ft 440 kts 167°
2026-05-06 17:08 58.69962 6.72259 32484 ft 440 kts 167°
2026-05-06 17:08 58.67094 6.74309 32787 ft 439 kts 167°
2026-05-06 17:08 58.64226 6.76357 33077 ft 439 kts 167°
2026-05-06 17:08 58.61360 6.78407 33359 ft 439 kts 167°
2026-05-06 17:09 58.58506 6.80450 33637 ft 439 kts 167°
2026-05-06 17:09 58.55643 6.82496 33899 ft 438 kts 167°
2026-05-06 17:09 58.52791 6.84529 34128 ft 438 kts 167°
2026-05-06 17:09 58.49928 6.86567 34301 ft 439 kts 167°
2026-05-06 17:10 58.47072 6.88594 34495 ft 439 kts 167°
2026-05-06 17:10 58.44207 6.90619 34685 ft 439 kts 167°
2026-05-06 17:10 58.41339 6.92640 34842 ft 439 kts 166°
2026-05-06 17:10 58.38476 6.94655 34999 ft 440 kts 167°
2026-05-06 17:11 58.35598 6.96676 35154 ft 441 kts 167°
2026-05-06 17:11 58.32715 6.98702 35329 ft 442 kts 166°
2026-05-06 17:11 58.29836 7.00728 35502 ft 442 kts 166°
2026-05-06 17:11 58.26943 7.02758 35623 ft 443 kts 166°
2026-05-06 17:12 58.24057 7.04774 35816 ft 443 kts 166°
2026-05-06 17:12 58.21158 7.06795 35991 ft 444 kts 166°
2026-05-06 17:12 58.18255 7.08816 36137 ft 444 kts 166°
2026-05-06 17:12 58.15357 7.10831 36295 ft 445 kts 166°
2026-05-06 17:13 58.12445 7.12848 36451 ft 445 kts 166°
2026-05-06 17:13 58.09567 7.14836 36569 ft 446 kts 166°
2026-05-06 17:13 58.06618 7.16876 36708 ft 447 kts 166°
2026-05-06 17:13 58.03697 7.18900 36866 ft 446 kts 166°
2026-05-06 17:14 58.00784 7.20913 36967 ft 447 kts 166°
2026-05-06 17:14 57.94967 7.24928 36973 ft 447 kts 166°
2026-05-06 17:15 57.89119 7.28920 36976 ft 447 kts 166°
2026-05-06 17:15 57.83271 7.32897 36966 ft 446 kts 166°
2026-05-06 17:16 57.77429 7.36869 36975 ft 446 kts 166°
2026-05-06 17:16 57.71683 7.40781 36981 ft 446 kts 166°
2026-05-06 17:17 57.65835 7.44737 36980 ft 447 kts 166°
2026-05-06 17:17 57.60048 7.48632 36990 ft 447 kts 166°
2026-05-06 17:18 57.54200 7.52556 37004 ft 447 kts 166°
2026-05-06 17:18 57.48339 7.56470 37006 ft 447 kts 166°
2026-05-06 17:19 57.42491 7.60367 37014 ft 447 kts 166°
2026-05-06 17:19 57.36643 7.64258 37009 ft 447 kts 166°
2026-05-06 17:20 57.30796 7.68130 37014 ft 446 kts 166°
2026-05-06 17:20 57.24951 7.71993 37021 ft 446 kts 166°
2026-05-06 17:21 57.19100 7.75842 37005 ft 445 kts 166°
2026-05-06 17:21 57.13267 7.79666 37000 ft 445 kts 166°
2026-05-06 17:22 57.07442 7.83463 37016 ft 444 kts 166°
2026-05-06 17:22 57.01661 7.87216 37022 ft 444 kts 166°
2026-05-06 17:23 56.95837 7.91001 37019 ft 443 kts 166°
2026-05-06 17:23 56.90025 7.94766 37021 ft 443 kts 166°
2026-05-06 17:24 56.84211 7.98515 36991 ft 443 kts 166°
2026-05-06 17:24 56.78402 8.02254 37008 ft 443 kts 166°
2026-05-06 17:25 56.72594 8.05967 37014 ft 442 kts 166°
2026-05-06 17:25 56.66778 8.09672 37016 ft 442 kts 166°
2026-05-06 17:26 56.60969 8.13367 37018 ft 442 kts 166°
2026-05-06 17:26 56.55161 8.17048 36984 ft 442 kts 166°
2026-05-06 17:27 56.49355 8.20722 37004 ft 442 kts 166°
2026-05-06 17:27 56.43541 8.24392 37004 ft 442 kts 166°
2026-05-06 17:28 56.37740 8.28036 37004 ft 441 kts 166°
2026-05-06 17:28 56.31978 8.31646 37001 ft 441 kts 166°
2026-05-06 17:29 56.26136 8.35278 36981 ft 441 kts 165°
2026-05-06 17:29 56.20374 8.38867 37002 ft 441 kts 165°
2026-05-06 17:30 56.14561 8.42471 37002 ft 441 kts 166°
2026-05-06 17:30 56.08756 8.46057 36985 ft 441 kts 165°
2026-05-06 17:31 56.02954 8.49632 36985 ft 441 kts 166°
2026-05-06 17:31 55.97148 8.53179 36967 ft 441 kts 165°
2026-05-06 17:32 55.91341 8.56737 36966 ft 442 kts 165°
2026-05-06 17:32 55.85531 8.60291 36964 ft 442 kts 165°
2026-05-06 17:33 55.79720 8.63819 36969 ft 441 kts 166°
2026-05-06 17:33 55.73937 8.67320 36965 ft 442 kts 165°
2026-05-06 17:34 55.68125 8.70850 36962 ft 442 kts 165°
2026-05-06 17:34 55.62313 8.74356 36963 ft 441 kts 166°
2026-05-06 17:35 55.56490 8.77851 36962 ft 441 kts 166°
2026-05-06 17:35 55.50677 8.81338 36964 ft 441 kts 166°
2026-05-06 17:36 55.41955 8.86538 36944 ft 441 kts 165°
2026-05-06 17:36 55.36133 8.89988 36942 ft 441 kts 165°
2026-05-06 17:37 55.30317 8.93442 36954 ft 441 kts 165°
2026-05-06 17:37 55.24505 8.96886 36961 ft 441 kts 165°
2026-05-06 17:38 55.18682 9.00305 36942 ft 441 kts 165°
2026-05-06 17:38 55.12868 9.03700 36946 ft 441 kts 165°
2026-05-06 17:39 55.07096 9.07088 36949 ft 441 kts 165°
2026-05-06 17:39 55.01282 9.10476 36941 ft 441 kts 165°
2026-05-06 17:40 54.95463 9.13852 36941 ft 441 kts 165°
2026-05-06 17:40 54.89643 9.17215 36926 ft 441 kts 165°
2026-05-06 17:41 54.83697 9.19395 36926 ft 433 kts 181°
2026-05-06 17:41 54.77686 9.19417 36938 ft 432 kts 183°
2026-05-06 17:42 54.71658 9.19409 36942 ft 433 kts 183°
2026-05-06 17:42 54.65637 9.19415 36925 ft 433 kts 183°
2026-05-06 17:43 54.59616 9.19419 36925 ft 433 kts 183°
2026-05-06 17:43 54.53593 9.19423 36934 ft 433 kts 183°
2026-05-06 17:44 54.48580 9.19421 36936 ft 433 kts 183°
2026-05-06 17:44 54.42553 9.19408 36937 ft 433 kts 183°
2026-05-06 17:45 54.36525 9.19413 36929 ft 433 kts 182°
2026-05-06 17:45 54.29515 9.19415 36925 ft 433 kts 183°
2026-05-06 17:46 54.24459 9.19406 36926 ft 433 kts 183°
2026-05-06 17:46 54.18430 9.19390 36916 ft 433 kts 183°
2026-05-06 17:47 54.12400 9.19387 36903 ft 434 kts 182°
2026-05-06 17:47 54.06358 9.19397 36912 ft 434 kts 182°
2026-05-06 17:48 54.00325 9.19401 36913 ft 434 kts 182°
2026-05-06 17:48 53.94331 9.19393 36915 ft 434 kts 182°
2026-05-06 17:49 53.88297 9.19384 36902 ft 434 kts 182°
2026-05-06 17:49 53.82252 9.19378 36906 ft 434 kts 182°
2026-05-06 17:50 53.76213 9.19373 36912 ft 434 kts 182°
2026-05-06 17:50 53.70172 9.19371 36913 ft 434 kts 182°
2026-05-06 17:51 53.64130 9.19372 36902 ft 434 kts 182°
2026-05-06 17:51 53.58087 9.19371 36907 ft 434 kts 182°
2026-05-06 17:52 53.52031 9.19379 36911 ft 435 kts 182°
2026-05-06 17:52 53.45984 9.19378 36914 ft 435 kts 182°
2026-05-06 17:53 53.39934 9.19369 36914 ft 435 kts 182°
2026-05-06 17:53 53.33888 9.19369 36907 ft 434 kts 182°
2026-05-06 17:54 53.27843 9.19363 36908 ft 434 kts 182°
2026-05-06 17:54 53.21830 9.19364 36911 ft 434 kts 182°
2026-05-06 17:55 53.15787 9.19358 36911 ft 434 kts 182°
2026-05-06 17:55 53.09746 9.19352 36912 ft 434 kts 182°
2026-05-06 17:56 53.03709 9.19357 36899 ft 434 kts 182°
2026-05-06 17:56 52.97681 9.19351 36901 ft 433 kts 182°
2026-05-06 17:57 52.91647 9.19343 36902 ft 433 kts 182°
2026-05-06 17:57 52.85623 9.19339 36887 ft 433 kts 182°
2026-05-06 17:58 52.79608 9.19332 36882 ft 432 kts 182°
2026-05-06 17:58 52.73595 9.19327 36883 ft 432 kts 182°
2026-05-06 17:59 52.67585 9.19335 36877 ft 432 kts 182°
2026-05-06 17:59 52.61566 9.19345 36870 ft 432 kts 182°
2026-05-06 18:00 52.55558 9.19333 36865 ft 432 kts 182°
2026-05-06 18:00 52.49549 9.19332 36869 ft 432 kts 182°
2026-05-06 18:01 52.43542 9.19328 36859 ft 432 kts 182°
2026-05-06 18:01 52.40531 9.19326 36698 ft 432 kts 182°
2026-05-06 18:01 52.37528 9.19321 36440 ft 431 kts 182°
2026-05-06 18:02 52.34540 9.19317 36184 ft 430 kts 182°
2026-05-06 18:02 52.31563 9.19319 35930 ft 430 kts 182°
2026-05-06 18:02 52.28558 9.19316 35685 ft 430 kts 182°
2026-05-06 18:02 52.25564 9.19312 35439 ft 430 kts 182°
2026-05-06 18:03 52.22581 9.19315 35193 ft 428 kts 182°
2026-05-06 18:03 52.19614 9.19322 34948 ft 426 kts 182°
2026-05-06 18:03 52.16693 9.19324 34713 ft 424 kts 182°
2026-05-06 18:03 52.13751 9.19318 34464 ft 421 kts 182°
2026-05-06 18:04 52.10834 9.19311 34227 ft 419 kts 182°
2026-05-06 18:04 52.07927 9.19311 33992 ft 417 kts 182°
2026-05-06 18:04 52.05032 9.19310 33748 ft 414 kts 182°
2026-05-06 18:04 52.02162 9.19312 33462 ft 412 kts 182°
2026-05-06 18:05 51.99293 9.19321 33182 ft 411 kts 182°
2026-05-06 18:05 51.96436 9.19321 32907 ft 409 kts 182°
2026-05-06 18:05 51.93603 9.19186 32651 ft 406 kts 189°
2026-05-06 18:05 51.90864 9.18280 32265 ft 398 kts 199°
2026-05-06 18:06 51.88341 9.16565 31810 ft 392 kts 210°
2026-05-06 18:06 51.86088 9.14140 31340 ft 386 kts 220°
2026-05-06 18:06 51.84169 9.11136 30909 ft 382 kts 229°
2026-05-06 18:06 51.82444 9.07910 30475 ft 378 kts 229°
2026-05-06 18:07 51.80723 9.04709 30036 ft 375 kts 229°
2026-05-06 18:07 51.79019 9.01550 29567 ft 372 kts 229°
2026-05-06 18:07 51.77326 8.98419 29127 ft 367 kts 229°
2026-05-06 18:07 51.75654 8.95331 28734 ft 363 kts 229°
2026-05-06 18:08 51.74004 8.92291 28347 ft 358 kts 229°
2026-05-06 18:08 51.72378 8.89295 27949 ft 353 kts 229°
2026-05-06 18:08 51.70766 8.86322 27562 ft 350 kts 229°
2026-05-06 18:08 51.69179 8.83392 27205 ft 345 kts 229°
2026-05-06 18:09 51.67607 8.80497 26835 ft 341 kts 229°
2026-05-06 18:09 51.66052 8.77636 26491 ft 339 kts 229°
2026-05-06 18:09 51.64509 8.74796 26136 ft 337 kts 229°
2026-05-06 18:09 51.62966 8.71965 25787 ft 335 kts 229°
2026-05-06 18:10 51.61339 8.69333 25428 ft 338 kts 220°
2026-05-06 18:10 51.59391 8.67131 25033 ft 340 kts 211°
2026-05-06 18:10 51.57296 8.65226 24164 ft 352 kts 210°
2026-05-06 18:10 51.55142 8.63294 23528 ft 355 kts 210°
2026-05-06 18:11 51.52991 8.61369 23003 ft 353 kts 210°
2026-05-06 18:11 51.50874 8.59480 22457 ft 351 kts 210°
2026-05-06 18:11 51.48719 8.57557 21891 ft 350 kts 210°
2026-05-06 18:11 51.46620 8.55679 21281 ft 350 kts 210°
2026-05-06 18:12 51.44493 8.53775 20647 ft 351 kts 210°
2026-05-06 18:12 51.42364 8.51869 20122 ft 349 kts 210°
2026-05-06 18:12 51.40242 8.49967 19493 ft 350 kts 210°
2026-05-06 18:12 51.38120 8.48074 18957 ft 348 kts 210°
2026-05-06 18:13 51.36008 8.46196 18353 ft 348 kts 210°
2026-05-06 18:13 51.33889 8.44313 17781 ft 347 kts 211°
2026-05-06 18:13 51.31789 8.42449 17189 ft 345 kts 210°
2026-05-06 18:13 51.29716 8.40578 16654 ft 341 kts 214°
2026-05-06 18:14 51.27876 8.38234 16110 ft 336 kts 226°
2026-05-06 18:14 51.26420 8.35346 15610 ft 331 kts 238°
2026-05-06 18:14 51.25266 8.32182 15092 ft 328 kts 240°
2026-05-06 18:14 51.24129 8.29051 14578 ft 326 kts 239°
2026-05-06 18:15 51.22991 8.25937 14047 ft 323 kts 239°
2026-05-06 18:15 51.21864 8.22856 13556 ft 321 kts 239°
2026-05-06 18:15 51.20742 8.19789 12982 ft 318 kts 239°
2026-05-06 18:15 51.19609 8.16776 12431 ft 316 kts 234°
2026-05-06 18:16 51.18104 8.14328 12242 ft 302 kts 221°
2026-05-06 18:16 51.16550 8.12194 12104 ft 289 kts 221°
2026-05-06 18:16 51.15052 8.10129 11906 ft 281 kts 221°
2026-05-06 18:16 51.13574 8.08090 11839 ft 281 kts 221°
2026-05-06 18:17 51.12072 8.06023 11842 ft 289 kts 221°
2026-05-06 18:17 51.10542 8.03925 11846 ft 291 kts 221°
2026-05-06 18:17 51.09009 8.01827 11846 ft 291 kts 221°
2026-05-06 18:17 51.07472 7.99726 11843 ft 291 kts 221°
2026-05-06 18:18 51.05936 7.97633 11818 ft 291 kts 221°
2026-05-06 18:18 51.04404 7.95551 11557 ft 287 kts 221°
2026-05-06 18:18 51.02889 7.93496 11311 ft 285 kts 221°
2026-05-06 18:18 51.01385 7.91458 11065 ft 284 kts 221°
2026-05-06 18:19 50.99903 7.89445 10813 ft 284 kts 221°
2026-05-06 18:19 50.98405 7.87410 10563 ft 283 kts 221°
2026-05-06 18:19 50.96916 7.85389 10318 ft 282 kts 221°
2026-05-06 18:19 50.95426 7.83368 10070 ft 281 kts 221°
2026-05-06 18:20 50.93944 7.81364 9835 ft 280 kts 221°
2026-05-06 18:20 50.92459 7.79362 9546 ft 279 kts 221°
2026-05-06 18:20 50.90983 7.77373 9182 ft 278 kts 221°
2026-05-06 18:20 50.89520 7.75396 8827 ft 276 kts 221°
2026-05-06 18:21 50.88056 7.73420 8465 ft 276 kts 221°
2026-05-06 18:21 50.86606 7.71457 8109 ft 274 kts 221°
2026-05-06 18:21 50.85157 7.69494 7748 ft 273 kts 221°
2026-05-06 18:21 50.83712 7.67550 7397 ft 271 kts 221°
2026-05-06 18:22 50.82281 7.65613 7047 ft 272 kts 224°
2026-05-06 18:22 50.80927 7.63534 6707 ft 271 kts 226°
2026-05-06 18:22 50.79606 7.61411 6361 ft 271 kts 227°
2026-05-06 18:22 50.78283 7.59283 5996 ft 270 kts 226°
2026-05-06 18:23 50.76967 7.57172 5555 ft 270 kts 227°
2026-05-06 18:23 50.75638 7.55071 5163 ft 270 kts 227°
2026-05-06 18:23 50.74309 7.52984 4762 ft 270 kts 227°
2026-05-06 18:23 50.72977 7.50896 4478 ft 268 kts 226°
2026-05-06 18:24 50.71691 7.48866 4347 ft 257 kts 227°
2026-05-06 18:24 50.70442 7.46922 4214 ft 247 kts 226°
2026-05-06 18:24 50.69351 7.44949 4059 ft 233 kts 245°
2026-05-06 18:24 50.68965 7.42562 3788 ft 222 kts 274°
2026-05-06 18:25 50.69334 7.40246 3465 ft 217 kts 302°
2026-05-06 18:25 50.70294 7.38470 3121 ft 213 kts 320°
2026-05-06 18:25 50.71378 7.36926 3013 ft 206 kts 320°
2026-05-06 18:25 50.72419 7.35438 3007 ft 196 kts 320°
2026-05-06 18:26 50.73391 7.34044 3021 ft 184 kts 320°
2026-05-06 18:26 50.74316 7.32716 3029 ft 180 kts 320°
2026-05-06 18:26 50.75236 7.31395 3028 ft 179 kts 320°
2026-05-06 18:26 50.76153 7.30077 2863 ft 177 kts 320°
2026-05-06 18:27 50.77062 7.28770 2640 ft 177 kts 320°
2026-05-06 18:27 50.77966 7.27468 2418 ft 173 kts 320°
2026-05-06 18:27 50.78808 7.26253 2184 ft 155 kts 320°
2026-05-06 18:27 50.79583 7.25137 1977 ft 146 kts 320°
2026-05-06 18:28 50.80304 7.24097 1790 ft 137 kts 320°
2026-05-06 18:28 50.81004 7.23088 1599 ft 135 kts 320°
2026-05-06 18:28 50.81694 7.22094 1407 ft 134 kts 319°
2026-05-06 18:28 50.82382 7.21102 1211 ft 133 kts 319°
2026-05-06 18:29 50.83075 7.20106 1018 ft 136 kts 317°
2026-05-06 18:29 50.83778 7.19112 865 ft 136 kts 318°
2026-05-06 18:29 50.84455 7.18088 633 ft 134 kts 317°
2026-05-06 18:29 50.85147 7.17099 428 ft 135 kts 319°
2026-05-06 18:30 50.85835 7.16101 310 ft 130 kts 318°
2026-05-06 18:30 50.86425 7.15259 268 ft 92 kts 317°
2026-05-06 18:30 50.86758 7.14766 257 ft 39 kts 314°
2026-05-06 18:30 50.86870 7.14486 256 ft 29 kts 286°
2026-05-06 18:31 50.86886 7.14337 259 ft 8 kts 278°
2026-05-06 18:31 50.86897 7.14229 255 ft 12 kts 279°
2026-05-06 18:31 50.86904 7.14166 253 ft 4 kts 283°
2026-05-06 18:31 50.86918 7.14109 251 ft 8 kts 296°
2026-05-06 18:32 50.86959 7.14027 250 ft 12 kts 315°
2026-05-06 18:32 50.87028 7.13928 247 ft 15 kts 319°
2026-05-06 18:32 50.87109 7.13811 245 ft 17 kts 317°
2026-05-06 18:32 50.87190 7.13694 242 ft 8 kts 317°
2026-05-06 18:33 50.87242 7.13617 240 ft 12 kts 316°
2026-05-06 18:33 50.87304 7.13526 238 ft 11 kts 317°
2026-05-06 18:33 50.87369 7.13433 236 ft 14 kts 318°
2026-05-06 18:33 50.87421 7.13360 236 ft 16 kts 318°
2026-05-06 18:34 50.87492 7.13255 233 ft 15 kts 315°
2026-05-06 18:34 50.87573 7.13136 232 ft 17 kts 317°
2026-05-06 18:34 50.87693 7.12964 231 ft 18 kts 318°
2026-05-06 18:34 50.87742 7.12892 231 ft 9 kts 315°
2026-05-06 18:35 50.87786 7.12820 231 ft 8 kts 304°
2026-05-06 18:35 50.87788 7.12764 230 ft 3 kts 262°
2026-05-06 18:35 50.87788 7.12720 230 ft 5 kts 276°
2026-05-06 18:35 50.87803 7.12659 230 ft 7 kts 301°
2026-05-06 18:36 50.87846 7.12613 230 ft 8 kts 346°
2026-05-06 18:36 50.87905 7.12607 230 ft 9 kts 349°
2026-05-06 18:36 50.87960 7.12553 230 ft 10 kts 319°
2026-05-06 18:36 50.87984 7.12513 230 ft 4 kts 293°
2026-05-06 18:37 50.87978 7.12476 230 ft 3 kts 251°
2026-05-06 18:37 50.87972 7.12448 232 ft 3 kts 248°
2026-05-06 18:37 50.87967 7.12431 230 ft 1 kts 247°
2026-05-06 18:37 50.87966 7.12429 230 ft 0 kts 246°